Location: Cypress Hills Dark-Sky Preserve - CHICO
(49.6176°N, 110.2634°W)
Time: 12:00:50
(UTC-06:00)

Amateur Radio Satellites - All Passes

Search period start: 24 August 2016 11:30
Search period end: 25 August 2016 11:30
Location: Cypress Hills Dark-Sky Preserve - CHICO, 49.6176°N, 110.2634°W

Satellite Date Start Highest point End Downlink Frequencies (MHz)
Time Altitude Azimuth
UNISAT 6 24 Aug 11:34:17 11:38:22 30° 265° (W) 11:42:25 437.425
BUGSAT 1 24 Aug 11:36:43 11:40:12 25° 64° (ENE) 11:43:41 437.445
Cosmos 2504 24 Aug 11:41:22 11:45:25 14° 311° (NW) 11:49:22 435.465 / 435.565
ESTCUBE 1 24 Aug 11:48:08 11:51:09 17° 90° (E) 11:54:11 437.505/2401.250
DANDE 24 Aug 11:50:33 11:55:06 60° 76° (ENE) 12:01:11 436.750
AAUSAT CUBESAT 2 24 Aug 11:56:54 11:57:58 11° 304° (NW) 11:59:02 437.432
AIST 1 24 Aug 11:56:59 12:00:08 19° 294° (WNW) 12:03:19
QB50P2 24 Aug 11:57:08 12:01:26 88° 252° (WSW) 12:05:45 145.880/145.840
CUBEBUG 2 24 Aug 11:57:39 11:59:23 12° 305° (NW) 12:01:07 437.445
POLYITAN 1 24 Aug 11:59:40 12:03:59 87° 256° (WSW) 12:08:18 437.675
DUCHIFAT 1 24 Aug 12:00:05 12:04:21 84° 72° (ENE) 12:08:38 145.980
AO-85 24 Aug 12:01:06 12:03:09 13° 4° (N) 12:05:10 145.980
UWE-3 24 Aug 12:02:54 12:05:14 14° 302° (WNW) 12:07:31 435.000/436.395/437.385
Oscar 11 24 Aug 12:03:58 12:07:06 20° 299° (WNW) 12:10:14 145.826/435.025
FUNcube-1 24 Aug 12:06:17 12:09:17 19° 299° (WNW) 12:12:14 145.935
HUMSAT D 24 Aug 12:08:30 12:12:32 61° 287° (WNW) 12:16:33 437.325/437.525
NANOSAT C BR1 24 Aug 12:12:01 12:16:16 70° 258° (WSW) 12:20:34 145.865
AISAT 24 Aug 12:12:22 12:15:22 17° 90° (E) 12:18:20 437.250
ANTELSAT 24 Aug 12:13:23 12:15:56 15° 272° (W) 12:18:28 437.575/2403.000
ZACube-1 24 Aug 12:26:30 12:28:23 13° 303° (WNW) 12:30:15 437.345
AO-7 24 Aug 12:28:33 12:31:17 12° 25° (NNE) 12:34:01 29.400- 29.500
DELFI C3 24 Aug 12:31:16 12:34:10 20° 297° (WNW) 12:37:05 145.870
BEESAT 2 24 Aug 12:32:23 12:36:20 90° 302° (WNW) 12:40:21 435.950
UKube-1 24 Aug 12:42:04 12:44:59 17° 91° (E) 12:47:52 .
50 SAT 24 Aug 12:50:11 12:53:32 34° 98° (E) 12:56:53 437.505
AUBIESAT-1 24 Aug 12:52:40 12:56:59 79° 109° (ESE) 13:00:56 437.475
Oscar 19 24 Aug 12:54:13 12:58:50 34° 63° (ENE) 13:03:29 437.125/150
QB50P1 24 Aug 12:54:43 12:58:19 26° 266° (W) 13:01:56 145.935-145.965
M-CUBED/EXP-1 PRIME 24 Aug 12:54:59 12:59:23 83° 290° (WNW) 13:03:25 437.505
Cosmos 2499 24 Aug 12:57:39 13:05:28 51° 91° (E) 13:12:44 435.465 / 435.565
HO-68 24 Aug 12:57:40 12:58:56 11° 326° (NW) 13:00:12 435.675
BEESAT 3 24 Aug 12:58:51 13:02:28 34° 320° (NW) 13:06:07 437.485
VELOX 1 24 Aug 12:59:15 13:03:34 44° 99° (E) 13:07:50 145.980
RS-15 24 Aug 13:04:28 13:15:26 40° 252° (WSW) 13:26:18 29.354- 29.394
POPSAT HIP 1 24 Aug 13:04:43 13:08:03 22° 268° (W) 13:11:23 437.405
ISS 24 Aug 13:05:18 13:08:35 72° 348° (NNW) 13:11:53 145.825
PCSat 24 Aug 13:06:55 13:11:50 36° 114° (ESE) 13:16:46 145.827
GONETS M04 24 Aug 13:08:37 13:17:18 73° 95° (E) 13:26:06
JAS-2 24 Aug 13:09:34 13:14:36 51° 261° (W) 13:19:58 435.910
CUBEBUG 1 24 Aug 13:11:14 13:15:41 71° 102° (ESE) 13:20:07 437.445
BUGSAT 1 24 Aug 13:11:23 13:15:24 40° 262° (W) 13:19:27 437.445
CUSAT 1 24 Aug 13:13:21 13:17:12 18° 274° (W) 13:21:30 437.405
ESTCUBE 1 24 Aug 13:23:54 13:28:24 63° 288° (WNW) 13:32:52 437.505/2401.250
DX 1 24 Aug 13:29:21 13:33:44 61° 102° (ESE) 13:38:04 434.975-435.025
DANDE 24 Aug 13:34:04 13:37:45 22° 268° (W) 13:42:11 436.750
Gurwin Techsat 1B 24 Aug 13:34:25 13:39:16 37° 64° (ENE) 13:44:08 435.225
QB50P2 24 Aug 13:36:59 13:37:54 11° 274° (W) 13:38:50 145.880/145.840
DUCHIFAT 1 24 Aug 13:39:05 13:40:39 12° 273° (W) 13:42:12 145.980
POLYITAN 1 24 Aug 13:39:39 13:40:27 10° 274° (W) 13:41:16 437.675
AO-85 24 Aug 13:41:42 13:45:18 22° 28° (NNE) 13:48:41 145.980
SPROUT 24 Aug 13:46:28 13:50:47 72° 102° (ESE) 13:55:03 437.525
AISAT 24 Aug 13:47:48 13:52:15 62° 289° (WNW) 13:56:39 437.250
ITAMSAT 1 24 Aug 14:00:57 14:04:59 23° 59° (ENE) 14:09:01 435.822/435.867
BEESAT 2 24 Aug 14:11:48 14:14:43 19° 330° (NNW) 14:17:41 435.950
AIST 2 24 Aug 14:12:15 14:16:12 48° 123° (ESE) 14:20:13 435.215
AO-7 24 Aug 14:14:24 14:21:32 33° 50° (NE) 14:28:40 29.400- 29.500
UKube-1 24 Aug 14:17:07 14:21:24 59° 289° (WNW) 14:25:40 .
TISAT 1 24 Aug 14:19:16 14:23:14 37° 97° (E) 14:27:08 437.305
50 SAT 24 Aug 14:24:09 14:26:58 21° 295° (WNW) 14:29:46 437.505
AUBIESAT-1 24 Aug 14:28:13 14:30:49 16° 310° (NW) 14:33:20 437.475
M-CUBED/EXP-1 PRIME 24 Aug 14:30:55 14:33:09 14° 312° (NW) 14:35:18 437.505
Oscar 19 24 Aug 14:33:15 14:38:05 40° 263° (W) 14:42:59 437.125/150
VELOX 1 24 Aug 14:36:10 14:39:49 25° 298° (WNW) 14:43:27 145.980
BEESAT 3 24 Aug 14:39:46 14:41:16 12° 342° (NNW) 14:42:46 437.485
ISS 24 Aug 14:41:59 14:45:16 62° 8° (N) 14:48:32 145.825
ITUPSAT 1 24 Aug 14:43:57 14:46:50 16° 89° (E) 14:49:40 437.325
CUBEBUG 1 24 Aug 14:48:37 14:51:29 17° 301° (WNW) 14:54:19 437.445
PCSat 24 Aug 14:49:55 14:55:08 47° 314° (NW) 15:00:25 145.827
Cosmos 2499 24 Aug 14:51:12 14:58:46 41° 291° (WNW) 15:05:52 435.465 / 435.565
ESTCUBE 1 24 Aug 15:03:42 15:04:19 10° 308° (NW) 15:04:56 437.505/2401.250
DX 1 24 Aug 15:06:25 15:09:31 19° 300° (WNW) 15:12:36 434.975-435.025
GONETS M04 24 Aug 15:07:21 15:14:59 32° 298° (WNW) 15:22:43
Gurwin Techsat 1B 24 Aug 15:14:19 15:19:14 37° 263° (W) 15:24:10 435.225
SWISSCUBE 24 Aug 15:18:03 15:22:25 34° 97° (E) 15:26:45 437.505
AO-85 24 Aug 15:21:55 15:26:22 85° 233° (SW) 15:30:25 145.980
SPROUT 24 Aug 15:23:37 15:26:14 16° 301° (WNW) 15:28:49 437.525
AISAT 24 Aug 15:27:41 15:27:50 10° 308° (NW) 15:27:58 437.250
O/OREOS (USA 219) 24 Aug 15:34:31 15:38:58 68° 114° (ESE) 15:43:29 437.305
BEESAT 24 Aug 15:35:30 15:40:06 45° 99° (E) 15:44:38 436.000
ITAMSAT 1 24 Aug 15:38:55 15:44:04 63° 258° (WSW) 15:49:14 435.822/435.867
AIST 2 24 Aug 15:51:15 15:54:52 29° 323° (NW) 15:58:34 435.215
TISAT 1 24 Aug 15:55:12 15:58:45 26° 296° (WNW) 16:02:14 437.305
AO-7 24 Aug 16:05:16 16:13:40 78° 252° (WSW) 16:22:04 29.400- 29.500
ISS 24 Aug 16:18:32 16:21:45 51° 206° (SSW) 16:24:56 145.825
ITUPSAT 1 24 Aug 16:20:27 16:25:14 75° 287° (WNW) 16:29:59 437.325
MOZHAYETS 4 24 Aug 16:21:25 16:25:02 23° 92° (E) 16:28:38
NOAA 18 24 Aug 16:28:50 16:29:10 10° 45° (NE) 16:29:30 137.9125
NOAA 15 24 Aug 16:30:19 16:32:21 12° 49° (NE) 16:34:25 137.62
PCSat 24 Aug 16:36:25 16:39:54 17° 338° (NNW) 16:43:24 145.827
KKS-1 24 Aug 16:41:43 16:45:32 27° 94° (E) 16:49:18 437.445
SWISSCUBE 24 Aug 16:55:55 17:00:13 34° 295° (WNW) 17:04:29 437.505
YUBILEINY 24 Aug 17:02:47 17:10:31 32° 62° (ENE) 17:18:08 435.215
AO-85 24 Aug 17:04:34 17:05:57 11° 252° (WSW) 17:07:17 145.980
HORYU 2 24 Aug 17:06:00 17:10:24 60° 71° (ENE) 17:14:48 437.375
BEESAT 24 Aug 17:13:41 17:17:41 27° 298° (WNW) 17:21:39 436.000
O/OREOS (USA 219) 24 Aug 17:15:28 17:18:52 20° 314° (NW) 17:22:18 437.305
STARS 24 Aug 17:27:16 17:31:24 37° 98° (E) 17:35:28 437.465
BEESAT 2 24 Aug 17:32:03 17:33:42 12° 18° (NNE) 17:35:21 435.950
CUBESAT XI-V 24 Aug 17:32:04 17:35:12 17° 89° (E) 17:38:19 437.345
GOMX 1 24 Aug 17:32:58 17:37:06 25° 60° (ENE) 17:41:25 467.674
AIST 2 24 Aug 17:33:10 17:34:40 12° 346° (NNW) 17:36:12 435.215
Cosmos 2504 24 Aug 17:36:47 17:41:27 17° 53° (NE) 17:46:00 435.465 / 435.565
BRITE-PL 24 Aug 17:37:57 17:42:36 48° 68° (ENE) 17:47:39 437.365/2234.400
Cubesat XI-IV 24 Aug 17:40:41 17:45:22 32° 62° (ENE) 17:50:03 437.490
LilacSat-2 24 Aug 17:44:10 17:47:14 23° 65° (ENE) 17:50:18 437.200
CUTE-I 24 Aug 17:53:22 17:58:18 39° 65° (ENE) 18:03:15 437.470
ISS 24 Aug 17:56:37 17:57:36 11° 225° (SW) 17:58:36 145.825
BEESAT 3 24 Aug 17:56:59 17:59:55 19° 30° (NNE) 18:02:51 437.485
DOVE 4 24 Aug 17:57:50 18:01:44 22° 59° (ENE) 18:05:42 437.250
MOZHAYETS 4 24 Aug 17:58:03 18:02:27 48° 290° (WNW) 18:06:50
ITUPSAT 1 24 Aug 18:00:08 18:02:16 13° 307° (NW) 18:04:25 437.325
AO-7 24 Aug 18:02:13 18:07:48 19° 273° (W) 18:13:25 29.400- 29.500
NOAA 18 24 Aug 18:03:17 18:08:32 46° 66° (ENE) 18:13:49 137.9125
NOAA 15 24 Aug 18:05:57 18:11:07 61° 69° (ENE) 18:16:20 137.62
HO-68 24 Aug 18:07:18 18:11:59 19° 45° (NE) 18:16:40 435.675
KKS-1 24 Aug 18:18:02 18:22:13 39° 293° (WNW) 18:26:22 437.445
PCSat 24 Aug 18:23:22 18:25:39 12° 5° (N) 18:27:55 145.827
Cosmos 2491 24 Aug 18:44:11 18:52:22 48° 88° (E) 19:00:36 435.465 / 435.565
HORYU 2 24 Aug 18:44:18 18:47:21 18° 269° (W) 18:50:23 437.375
YUBILEINY 24 Aug 18:59:24 19:08:09 72° 266° (W) 19:16:48 435.215
SEEDS 24 Aug 18:59:58 19:01:14 11° 56° (NE) 19:02:29 437.485
CINEMA 3 24 Aug 19:03:51 19:07:55 25° 62° (ENE) 19:11:58 145.822/145.860
STARS 24 Aug 19:03:51 19:07:38 28° 296° (WNW) 19:11:23 437.465
CUBESAT XI-V 24 Aug 19:08:22 19:13:02 66° 287° (WNW) 19:17:41 437.345
BEESAT 2 24 Aug 19:08:56 19:12:39 35° 40° (NE) 19:16:22 435.950
GOMX 1 24 Aug 19:09:48 19:14:46 58° 261° (W) 19:20:05 467.674
CANX-2 24 Aug 19:12:03 19:15:15 22° 63° (ENE) 19:18:28 2200.000
AIST 2 24 Aug 19:13:49 19:15:00 11° 11° (N) 19:16:11 435.215
BRITE-PL 24 Aug 19:17:20 19:21:22 26° 270° (W) 19:25:42 437.365/2234.400
LilacSat-2 24 Aug 19:17:49 19:21:23 35° 263° (W) 19:24:57 437.200
CUTE 1.7 + AOD 2 24 Aug 19:18:49 19:22:04 22° 63° (ENE) 19:25:19 437.475
Cubesat XI-IV 24 Aug 19:20:10 19:25:17 45° 261° (W) 19:30:26 437.490
Cosmos 2504 24 Aug 19:29:00 19:36:24 74° 78° (ENE) 19:43:33 435.465 / 435.565
CUTE-I 24 Aug 19:33:31 19:38:24 36° 264° (W) 19:43:18 437.470
DOVE 4 24 Aug 19:33:45 19:38:53 71° 258° (WSW) 19:44:13 437.250
BEESAT 3 24 Aug 19:34:08 19:38:08 89° 259° (W) 19:42:06 437.485
AAUSAT CUBESAT 2 24 Aug 19:39:46 19:42:13 16° 60° (ENE) 19:44:40 437.432
COMPASS 1 24 Aug 19:43:38 19:46:41 20° 62° (ENE) 19:49:43 437.405
NOAA 18 24 Aug 19:44:26 19:49:22 32° 264° (W) 19:54:19 137.9125
CUBEBUG 2 24 Aug 19:45:51 19:49:12 20° 61° (ENE) 19:52:30 437.445
NOAA 15 24 Aug 19:47:15 19:51:19 22° 268° (W) 19:55:25 137.62
HO-68 24 Aug 19:51:23 19:58:29 68° 68° (ENE) 20:05:40 435.675
UWE-3 24 Aug 19:51:34 19:54:16 16° 59° (ENE) 19:56:56 435.000/436.395/437.385
Oscar 11 24 Aug 19:53:44 19:54:37 11° 54° (NE) 19:55:29 145.826/435.025
FUNcube-1 24 Aug 19:56:14 19:57:20 11° 55° (NE) 19:58:25 145.935
PCSat 24 Aug 20:06:56 20:11:09 22° 30° (NNE) 20:15:23 145.827
ZACube-1 24 Aug 20:13:49 20:16:37 17° 59° (ENE) 20:19:22 437.345
AIST 1 24 Aug 20:20:46 20:24:15 22° 67° (ENE) 20:27:43
SEEDS 24 Aug 20:32:04 20:36:13 81° 75° (ENE) 20:40:25 437.485
CINEMA 3 24 Aug 20:39:50 20:44:45 54° 261° (W) 20:49:39 145.822/145.860
Cosmos 2491 24 Aug 20:40:55 20:49:15 48° 291° (WNW) 20:57:41 435.465 / 435.565
STRAND 1 24 Aug 20:42:52 20:47:58 65° 103° (ESE) 20:53:02 437.568
CANX-2 24 Aug 20:46:48 20:50:51 46° 261° (W) 20:54:56 2200.000
BEESAT 2 24 Aug 20:46:50 20:50:30 35° 240° (WSW) 20:54:08 435.950
CUBESAT XI-V 24 Aug 20:48:09 20:49:32 11° 307° (NW) 20:50:56 437.345
AIST 2 24 Aug 20:51:24 20:54:54 25° 34° (NE) 20:58:25 435.215
CUTE 1.7 + AOD 2 24 Aug 20:53:37 20:57:39 45° 262° (W) 21:01:43 437.475
YUBILEINY 24 Aug 20:58:12 21:03:17 17° 289° (WNW) 21:08:21 435.215
AAUSAT CUBESAT 2 24 Aug 21:13:08 21:17:13 67° 258° (WSW) 21:21:21 437.432
BEESAT 3 24 Aug 21:13:41 21:15:10 12° 250° (WSW) 21:16:39 437.485
DOVE 4 24 Aug 21:16:03 21:17:34 11° 278° (W) 21:19:06 437.250
COMPASS 1 24 Aug 21:17:57 21:21:56 48° 261° (W) 21:25:58 437.405
GONETS M04 24 Aug 21:18:28 21:22:11 13° 41° (NE) 21:25:54
CUBEBUG 2 24 Aug 21:20:45 21:25:26 63° 259° (W) 21:30:01 437.445
Cosmos 2504 24 Aug 21:23:25 21:28:58 24° 280° (W) 21:34:24 435.465 / 435.565
UWE-3 24 Aug 21:25:35 21:30:12 80° 258° (WSW) 21:34:43 435.000/436.395/437.385
Oscar 11 24 Aug 21:25:40 21:29:57 71° 73° (ENE) 21:34:16 145.826/435.025
FUNcube-1 24 Aug 21:28:22 21:32:49 71° 73° (ENE) 21:37:11 145.935
HUMSAT D 24 Aug 21:29:23 21:32:24 20° 62° (ENE) 21:35:24 437.325/437.525
HO-68 24 Aug 21:40:40 21:46:46 29° 267° (W) 21:52:55 435.675
DELFI C3 24 Aug 21:45:31 21:49:19 48° 71° (ENE) 21:53:08 145.870
ZACube-1 24 Aug 21:47:57 21:52:25 72° 258° (WSW) 21:56:49 437.345
PCSat 24 Aug 21:49:59 21:55:27 77° 53° (NE) 22:00:52 145.827
PRISM 24 Aug 21:56:18 22:00:20 44° 100° (E) 22:04:20 437.425
AIST 1 24 Aug 21:57:52 22:02:05 44° 267° (W) 22:06:16
AUBIESAT-1 24 Aug 22:08:08 22:12:07 29° 58° (ENE) 22:16:06 437.475
M-CUBED/EXP-1 PRIME 24 Aug 22:10:31 22:14:46 35° 60° (ENE) 22:19:03 437.505
SEEDS 24 Aug 22:10:59 22:12:30 12° 273° (W) 22:14:01 437.485
STRAND 1 24 Aug 22:22:51 22:26:43 22° 302° (WNW) 22:30:35 437.568
ANTELSAT 24 Aug 22:23:50 22:25:04 11° 86° (E) 22:26:17 437.575/2403.000
VELOX 1 24 Aug 22:28:08 22:29:12 11° 53° (NE) 22:30:15 145.980
AIST 2 24 Aug 22:29:35 22:33:45 64° 235° (SW) 22:37:53 435.215
CUBEBUG 1 24 Aug 22:37:20 22:39:46 15° 57° (ENE) 22:42:14 437.445
Cosmos 2499 24 Aug 22:43:47 22:49:10 22° 58° (ENE) 22:54:28 435.465 / 435.565
Cosmos 2491 24 Aug 22:45:09 22:48:56 13° 318° (NW) 22:52:43 435.465 / 435.565
ESTCUBE 1 24 Aug 22:51:34 22:55:20 27° 63° (ENE) 22:59:07 437.505/2401.250
TIGRISAT 24 Aug 22:54:05 22:57:24 21° 92° (E) 23:00:40 435.000
DX 1 24 Aug 22:55:24 22:57:35 14° 56° (NE) 22:59:46 434.975-435.025
HUMSAT D 24 Aug 23:03:39 23:07:43 50° 260° (W) 23:11:46 437.325/437.525
Oscar 11 24 Aug 23:04:16 23:06:35 14° 272° (W) 23:08:56 145.826/435.025
UWE-3 24 Aug 23:06:31 23:07:21 10° 275° (W) 23:08:11 435.000/436.395/437.385
FUNcube-1 24 Aug 23:06:59 23:09:31 15° 271° (W) 23:12:03 145.935
SPROUT 24 Aug 23:10:42 23:12:50 14° 57° (ENE) 23:14:58 437.525
GONETS M04 24 Aug 23:13:26 23:21:55 47° 69° (ENE) 23:30:21
AISAT 24 Aug 23:13:32 23:17:16 27° 63° (ENE) 23:21:02 437.250
UNISAT 6 24 Aug 23:21:06 23:25:13 40° 98° (E) 23:29:14 437.425
DELFI C3 24 Aug 23:21:48 23:24:27 17° 269° (W) 23:27:06 145.870
50 SAT 24 Aug 23:31:35 23:34:44 30° 68° (ENE) 23:37:55 437.505
PRISM 24 Aug 23:32:09 23:35:24 22° 298° (WNW) 23:38:39 437.425
PCSat 24 Aug 23:34:21 23:38:16 20° 253° (WSW) 23:42:09 145.827
QB50P2 24 Aug 23:39:53 23:41:17 11° 87° (E) 23:42:39 145.880/145.840
UKube-1 24 Aug 23:40:24 23:44:01 26° 63° (ENE) 23:47:38 .
AUBIESAT-1 24 Aug 23:41:57 23:46:23 45° 256° (WSW) 23:50:51 437.475
POLYITAN 1 24 Aug 23:42:24 23:43:49 11° 87° (E) 23:45:14 437.675
M-CUBED/EXP-1 PRIME 24 Aug 23:44:55 23:49:13 36° 258° (WSW) 23:53:36 437.505
NANOSAT C BR1 24 Aug 23:53:26 23:55:41 14° 88° (E) 23:57:57 145.865
ANTELSAT 24 Aug 23:58:06 00:02:29 88° 276° (W) 00:06:45 437.575/2403.000
VELOX 1 25 Aug 00:00:24 00:04:49 67° 72° (ENE) 00:09:16 145.980
O/OREOS (USA 219) 25 Aug 00:01:01 00:05:21 39° 55° (NE) 00:09:41 437.305
SO-50 25 Aug 00:04:15 00:06:15 12° 109° (ESE) 00:08:16 436.795
CUBEBUG 1 25 Aug 00:11:03 00:15:27 83° 254° (WSW) 00:19:55 437.445
JAS-2 25 Aug 00:12:43 00:17:25 20° 89° (E) 00:22:25 435.910
ESTCUBE 1 25 Aug 00:27:46 00:31:58 40° 262° (W) 00:36:15 437.505/2401.250
DX 1 25 Aug 00:28:45 00:33:07 90° 134° (SE) 00:37:33 434.975-435.025
TIGRISAT 25 Aug 00:30:12 00:34:22 46° 291° (WNW) 00:38:25 435.000
QB50P1 25 Aug 00:34:19 00:38:16 36° 97° (E) 00:42:10 145.935-145.965
Cosmos 2499 25 Aug 00:36:09 00:43:19 85° 263° (W) 00:50:23 435.465 / 435.565
CUSAT 1 25 Aug 00:39:37 00:42:27 63° 100° (E) 00:46:00 437.405
SPROUT 25 Aug 00:43:49 00:48:08 88° 251° (WSW) 00:52:30 437.525
POPSAT HIP 1 25 Aug 00:43:56 00:48:02 45° 99° (E) 00:52:04 437.405
BUGSAT 1 25 Aug 00:49:12 00:52:27 22° 92° (E) 00:55:39 437.445
AISAT 25 Aug 00:49:23 00:53:35 40° 262° (W) 00:57:50 437.250
SWISSCUBE 25 Aug 00:54:47 00:56:18 11° 52° (NE) 00:57:48 437.505
UNISAT 6 25 Aug 00:58:12 01:01:46 25° 297° (WNW) 01:05:16 437.425
50 SAT 25 Aug 01:05:28 01:08:21 23° 265° (W) 01:11:17 437.505
DANDE 25 Aug 01:06:55 01:09:14 29° 95° (E) 01:11:42 436.750
GONETS M04 25 Aug 01:10:28 01:18:52 50° 272° (W) 01:27:14
BEESAT 25 Aug 01:11:08 01:13:38 14° 54° (NE) 01:16:08 436.000
QB50P2 25 Aug 01:13:26 01:17:43 85° 283° (WNW) 01:21:56 145.880/145.840
TISAT 1 25 Aug 01:14:42 01:18:48 49° 70° (ENE) 01:22:56 437.305
DUCHIFAT 1 25 Aug 01:15:26 01:19:41 85° 102° (ESE) 01:23:53 145.980
UKube-1 25 Aug 01:15:51 01:19:54 39° 262° (W) 01:24:00 .
POLYITAN 1 25 Aug 01:15:59 01:20:14 84° 286° (WNW) 01:24:27 437.675
RS-15 25 Aug 01:22:14 01:31:29 29° 102° (ESE) 01:41:03 29.354- 29.394
NANOSAT C BR1 25 Aug 01:27:42 01:31:55 69° 287° (WNW) 01:36:05 145.865
ANTELSAT 25 Aug 01:36:34 01:38:31 13° 304° (NW) 01:40:26 437.575/2403.000
VELOX 1 25 Aug 01:39:02 01:41:46 16° 271° (W) 01:44:30 145.980
O/OREOS (USA 219) 25 Aug 01:40:39 01:44:39 30° 254° (WSW) 01:48:38 437.305
SO-50 25 Aug 01:41:07 01:45:58 74° 127° (SE) 01:50:46 436.795
CUBEBUG 1 25 Aug 01:51:42 01:52:29 10° 275° (W) 01:53:16 437.445
ITUPSAT 1 25 Aug 01:54:23 01:58:31 30° 63° (ENE) 02:02:40 437.325
JAS-2 25 Aug 01:56:38 02:03:07 89° 101° (ESE) 02:10:26 435.910
DX 1 25 Aug 02:08:34 02:09:58 11° 273° (W) 02:11:24 434.975-435.025
QB50P1 25 Aug 02:10:21 02:13:55 26° 296° (WNW) 02:17:27 145.935-145.965
POPSAT HIP 1 25 Aug 02:20:15 02:23:34 22° 297° (WNW) 02:26:50 437.405
SPROUT 25 Aug 02:23:42 02:24:45 11° 274° (W) 02:25:49 437.525
BUGSAT 1 25 Aug 02:24:03 02:28:01 42° 291° (WNW) 02:31:56 437.445
SWISSCUBE 25 Aug 02:28:30 02:33:12 65° 71° (ENE) 02:37:56 437.505
Cosmos 2499 25 Aug 02:31:02 02:35:15 17° 284° (WNW) 02:39:27 435.465 / 435.565
Oscar 19 25 Aug 02:39:49 02:44:56 52° 100° (E) 02:49:59 437.125/150
BEESAT 25 Aug 02:45:56 02:50:42 84° 74° (ENE) 02:55:30 436.000
QB50P2 25 Aug 02:51:07 02:52:50 12° 304° (NW) 02:54:31 145.880/145.840
TISAT 1 25 Aug 02:51:35 02:54:43 20° 268° (W) 02:57:52 437.305
DUCHIFAT 1 25 Aug 02:52:43 02:54:46 13° 303° (WNW) 02:56:49 145.980
POLYITAN 1 25 Aug 02:53:43 02:55:21 12° 304° (NW) 02:57:00 437.675
NANOSAT C BR1 25 Aug 03:06:39 03:06:50 10° 306° (NW) 03:07:01 145.865
GONETS M04 25 Aug 03:12:08 03:13:20 10° 295° (WNW) 03:14:33
SO-50 25 Aug 03:22:45 03:26:55 27° 328° (NNW) 03:31:01 436.795
Gurwin Techsat 1B 25 Aug 03:25:22 03:30:41 63° 102° (ESE) 03:35:56 435.225
MOZHAYETS 4 25 Aug 03:27:14 03:31:22 35° 67° (ENE) 03:35:32
RS-15 25 Aug 03:30:36 03:42:18 87° 127° (SE) 03:54:37 29.354- 29.394
ITUPSAT 1 25 Aug 03:31:47 03:36:15 40° 262° (W) 03:40:45 437.325
JAS-2 25 Aug 03:42:46 03:47:34 23° 304° (NW) 03:52:46 435.910
KKS-1 25 Aug 03:43:35 03:47:48 42° 68° (ENE) 03:52:03 437.445
ITAMSAT 1 25 Aug 03:47:24 03:52:04 33° 96° (E) 03:56:43 435.822/435.867
AO-7 25 Aug 04:02:29 04:09:22 28° 92° (E) 04:16:11 29.400- 29.500
SWISSCUBE 25 Aug 04:08:13 04:11:27 18° 270° (W) 04:14:42 437.505
Oscar 19 25 Aug 04:19:38 04:23:59 27° 299° (WNW) 04:28:18 437.125/150
BEESAT 25 Aug 04:26:41 04:29:08 14° 272° (W) 04:31:35 436.000
STARS 25 Aug 04:27:41 04:32:02 58° 71° (ENE) 04:36:24 437.465
CUBESAT XI-V 25 Aug 04:39:18 04:43:11 28° 64° (ENE) 04:47:06 437.345
Cosmos 2491 25 Aug 04:48:33 04:56:11 31° 61° (ENE) 05:03:48 435.465 / 435.565
MOZHAYETS 4 25 Aug 05:04:32 05:08:34 31° 265° (W) 05:12:38
Gurwin Techsat 1B 25 Aug 05:06:03 05:10:14 24° 301° (WNW) 05:14:25 435.225
SO-50 25 Aug 05:06:26 05:08:56 14° 352° (N) 05:11:24 436.795
PHONESAT 2.4 25 Aug 05:14:09 05:15:41 13° 171° (S) 05:17:13 2401.200-2431.200
KKS-1 25 Aug 05:20:48 05:24:32 25° 266° (W) 05:28:17 437.445
ITAMSAT 1 25 Aug 05:26:48 05:31:38 41° 295° (WNW) 05:36:28 435.822/435.867
BRITE-PL 25 Aug 05:39:13 05:42:19 15° 84° (E) 05:45:24 437.365/2234.400
AO-85 25 Aug 05:42:09 05:44:31 13° 109° (ESE) 05:46:51 145.980
RS-15 25 Aug 05:44:53 05:56:17 47° 337° (NNW) 06:08:06 29.354- 29.394
AO-7 25 Aug 05:54:40 06:03:01 79° 293° (WNW) 06:11:17 29.400- 29.500
STARS 25 Aug 06:05:41 06:08:45 18° 269° (W) 06:11:52 437.465
CUTE-I 25 Aug 06:09:18 06:09:33 10° 83° (E) 06:09:48 437.470
YUBILEINY 25 Aug 06:10:28 06:17:44 30° 80° (E) 06:25:01 435.215
CUBESAT XI-V 25 Aug 06:16:04 06:20:25 41° 263° (W) 06:24:49 437.345
NOAA 15 25 Aug 06:17:45 06:21:01 16° 88° (E) 06:24:15 137.62
NOAA 18 25 Aug 06:22:42 06:24:59 13° 85° (E) 06:27:16 137.9125
Cosmos 2504 25 Aug 06:25:10 06:27:49 12° 70° (ENE) 06:30:24 435.465 / 435.565
STRAND 1 25 Aug 06:25:25 06:29:27 24° 60° (ENE) 06:33:30 437.568
HORYU 2 25 Aug 06:28:52 06:33:18 64° 103° (ESE) 06:37:40 437.375
Cosmos 2491 25 Aug 06:45:08 06:53:57 75° 265° (W) 07:02:44 435.465 / 435.565
LilacSat-2 25 Aug 06:47:16 06:49:55 18° 91° (E) 06:52:32 437.200
SO-50 25 Aug 06:48:21 06:51:18 16° 17° (NNE) 06:54:12 436.795
PHONESAT 2.4 25 Aug 06:49:42 06:51:21 14° 187° (S) 06:53:00 2401.200-2431.200
GOMX 1 25 Aug 07:07:14 07:12:19 36° 94° (E) 07:17:12 467.674
BRITE-PL 25 Aug 07:15:54 07:21:37 81° 103° (ESE) 07:27:19 437.365/2234.400
AO-85 25 Aug 07:19:03 07:24:18 72° 125° (SE) 07:29:13 145.980
DOVE 4 25 Aug 07:28:58 07:33:22 27° 91° (E) 07:37:33 437.250
Cubesat XI-IV 25 Aug 07:32:33 07:37:46 52° 100° (E) 07:42:56 437.490
CUTE-I 25 Aug 07:45:20 07:50:39 66° 102° (ESE) 07:55:56 437.470
AO-7 25 Aug 07:48:18 07:54:40 25° 316° (NW) 08:01:00 29.400- 29.500
NOAA 15 25 Aug 07:56:08 08:01:28 84° 287° (WNW) 08:06:48 137.62
RS-15 25 Aug 08:01:02 08:12:21 41° 10° (N) 08:23:50 29.354- 29.394
NOAA 18 25 Aug 08:01:04 08:06:36 76° 105° (ESE) 08:12:03 137.9125
STRAND 1 25 Aug 08:03:15 08:08:16 59° 258° (WSW) 08:13:20 437.568
YUBILEINY 25 Aug 08:04:56 08:13:47 74° 283° (WNW) 08:22:40 435.215
HORYU 2 25 Aug 08:06:24 08:09:25 18° 301° (WNW) 08:12:25 437.375
Cosmos 2504 25 Aug 08:11:19 08:19:30 56° 92° (E) 08:27:09 435.465 / 435.565
SEEDS 25 Aug 08:14:40 08:14:54 10° 85° (E) 08:15:08 437.485
LilacSat-2 25 Aug 08:20:51 08:24:27 42° 290° (WNW) 08:28:01 437.200
CANX-2 25 Aug 08:27:41 08:31:01 22° 92° (E) 08:34:21 2200.000
SO-50 25 Aug 08:28:32 08:32:59 41° 40° (NE) 08:37:19 436.795
CINEMA 3 25 Aug 08:30:46 08:34:47 28° 93° (E) 08:38:38 145.822/145.860
CUTE 1.7 + AOD 2 25 Aug 08:34:20 08:37:43 23° 93° (E) 08:41:04 437.475
Cosmos 2491 25 Aug 08:43:49 08:49:13 18° 287° (WNW) 08:54:40 435.465 / 435.565
GOMX 1 25 Aug 08:45:17 08:50:24 40° 294° (WNW) 08:55:22 467.674
PRISM 25 Aug 08:49:35 08:53:36 58° 71° (ENE) 08:57:40 437.425
UNISAT 6 25 Aug 08:51:47 08:52:16 10° 53° (NE) 08:52:43 437.425
AAUSAT CUBESAT 2 25 Aug 08:52:12 08:54:30 14° 89° (E) 08:56:48 437.432
BRITE-PL 25 Aug 08:55:18 08:59:28 22° 302° (WNW) 09:03:39 437.365/2234.400
COMPASS 1 25 Aug 08:56:48 08:59:53 20° 91° (E) 09:02:58 437.405
AO-85 25 Aug 09:00:43 09:05:11 29° 326° (NW) 09:09:24 145.980
HO-68 25 Aug 09:01:52 09:08:46 47° 99° (E) 09:15:37 435.675
DOVE 4 25 Aug 09:06:17 09:11:17 48° 291° (WNW) 09:16:02 437.250
CUBEBUG 2 25 Aug 09:08:09 09:11:19 20° 91° (E) 09:14:23 437.445
UWE-3 25 Aug 09:12:17 09:14:41 15° 88° (E) 09:17:04 435.000/436.395/437.385
Cubesat XI-IV 25 Aug 09:13:06 09:17:36 28° 299° (WNW) 09:22:04 437.490
CUSAT 1 25 Aug 09:24:05 09:27:40 16° 60° (ENE) 09:31:43 437.405
ANTELSAT 25 Aug 09:25:39 09:28:56 20° 61° (ENE) 09:32:11 437.575/2403.000
CUTE-I 25 Aug 09:26:10 09:30:16 23° 302° (WNW) 09:34:21 437.470
ZACube-1 25 Aug 09:33:06 09:35:39 16° 89° (E) 09:38:12 437.345
NOAA 15 25 Aug 09:37:15 09:40:30 17° 307° (NW) 09:43:45 137.62
NOAA 18 25 Aug 09:42:38 09:46:42 22° 305° (NW) 09:50:44 137.9125
SEEDS 25 Aug 09:47:03 09:51:16 87° 104° (ESE) 09:55:29 437.485
TIGRISAT 25 Aug 09:56:22 10:00:30 33° 66° (ENE) 10:04:34 435.000
CANX-2 25 Aug 10:03:03 10:07:04 42° 291° (WNW) 10:11:04 2200.000
Cosmos 2504 25 Aug 10:05:30 10:13:12 39° 292° (WNW) 10:20:27 435.465 / 435.565
YUBILEINY 25 Aug 10:06:10 10:12:24 21° 308° (NW) 10:18:41 435.215
CINEMA 3 25 Aug 10:07:42 10:12:02 38° 293° (WNW) 10:16:09 145.822/145.860
SO-50 25 Aug 10:09:12 10:13:26 36° 241° (WSW) 10:17:33 436.795
CUTE 1.7 + AOD 2 25 Aug 10:09:45 10:13:44 41° 291° (WNW) 10:17:44 437.475
RS-15 25 Aug 10:15:10 10:27:31 68° 41° (NE) 10:39:46 29.354- 29.394
UNISAT 6 25 Aug 10:23:33 10:28:07 62° 72° (ENE) 10:32:36 437.425
AAUSAT CUBESAT 2 25 Aug 10:26:18 10:30:25 65° 288° (WNW) 10:34:33 437.432
PRISM 25 Aug 10:26:45 10:29:18 16° 270° (W) 10:31:52 437.425
AIST 1 25 Aug 10:31:00 10:35:21 84° 98° (E) 10:39:46
COMPASS 1 25 Aug 10:31:41 10:35:42 47° 290° (WNW) 10:39:42 437.405
JAS-2 25 Aug 10:33:30 10:35:33 12° 47° (NE) 10:37:39 435.910
QB50P2 25 Aug 10:36:02 10:38:48 17° 59° (ENE) 10:41:34 145.880/145.840
ISS 25 Aug 10:37:20 10:40:00 23° 143° (SE) 10:42:41 145.825
DUCHIFAT 1 25 Aug 10:37:46 10:40:12 15° 58° (ENE) 10:42:38 145.980
POLYITAN 1 25 Aug 10:38:33 10:41:20 17° 59° (ENE) 10:44:07 437.675
HUMSAT D 25 Aug 10:43:16 10:46:08 18° 91° (E) 10:49:00 437.325/437.525
CUBEBUG 2 25 Aug 10:44:04 10:48:14 48° 290° (WNW) 10:52:17 437.445
BEESAT 2 25 Aug 10:44:16 10:46:06 13° 111° (ESE) 10:47:57 435.950
Oscar 11 25 Aug 10:44:25 10:48:46 80° 104° (ESE) 10:53:04 145.826/435.025
AO-85 25 Aug 10:44:39 10:47:08 14° 349° (N) 10:49:31 145.980
UWE-3 25 Aug 10:47:26 10:51:39 64° 287° (WNW) 10:55:45 435.000/436.395/437.385
FUNcube-1 25 Aug 10:48:13 10:52:26 82° 105° (ESE) 10:56:33 145.935
NANOSAT C BR1 25 Aug 10:49:23 10:52:29 20° 61° (ENE) 10:55:36 145.865
HO-68 25 Aug 10:49:46 10:56:29 44° 300° (WNW) 11:03:09 435.675
DELFI C3 25 Aug 10:53:16 10:57:07 44° 99° (E) 11:00:57 145.870
ANTELSAT 25 Aug 11:00:41 11:05:15 61° 259° (WSW) 11:09:46 437.575/2403.000
CUSAT 1 25 Aug 11:04:34 11:10:21 74° 77° (ENE) 11:17:38 437.405
BEESAT 3 25 Aug 11:05:50 11:09:26 36° 120° (ESE) 11:13:05 437.485
ZACube-1 25 Aug 11:08:14 11:12:23 59° 288° (WNW) 11:16:27 437.345
M-CUBED/EXP-1 PRIME 25 Aug 11:22:16 11:23:36 11° 91° (E) 11:24:54 437.505
SEEDS 25 Aug 11:24:25 11:26:22 13° 302° (WNW) 11:28:18 437.485
